Wind_Speed
21 20 19 19 19 19 18 17 16 15 16 16 17 17 17 17 18 20 23 16 13 9 9 10 9 3 7 8 15 13 1 4 7 9 11 26 18 29 6 11 9 17 23 34 38
22 22 21 20 20 20 20 19 17 16 15 14 15 15 16 16 18 21 17 17 15 14 11 12 10 4 5 6 5 6 3 8 7 12 9 25 24 29 1 10 1 14 14 43 44
23 22 21 21 21 21 20 19 18 18 16 14 13 12 13 13 15 4 6 4 10 11 11 11 6 5 8 12 11 4 6 12 18 22 30 23 17 26 3 5 14 29 43 46 43
23 22 22 22 22 21 21 20 19 17 15 13 11 10 9 7 3 2 6 5 1 4 8 7 6 4 3 4 19 3 15 15 12 19 5 6 12 14 14 17 13 26 42 50 47
24 22 22 22 22 21 20 20 17 15 13 11 9 7 6 6 11 8 3 6 3 3 6 9 6 6 4 5 12 3 6 17 27 29 26 25 17 12 24 37 12 29 47 50 49
25 23 22 22 22 21 20 18 16 15 13 9 6 4 5 4 1 4 1 7 11 8 6 7 6 9 11 6 4 9 14 18 26 28 28 11 18 7 37 39 20 38 48 48 50
25 24 23 23 22 21 18 16 16 13 8 4 3 4 7 8 1 5 4 6 7 6 12 11 9 10 14 8 17 18 8 12 19 15 11 15 13 10 36 40 22 40 43 44 46
28 26 25 25 22 19 16 16 10 8 4 1 1 4 6 2 4 10 9 7 8 9 3 2 5 15 6 9 12 7 4 5 10 12 14 1 11 20 25 13 25 36 39 41 47
29 28 27 25 21 16 17 13 4 8 4 1 1 3 4 0 4 3 10 10 8 9 12 10 13 16 11 3 6 4 5 6 11 12 8 5 9 12 25 20 4 31 37 41 43
31 30 28 23 18 16 18 6 5 3 4 4 4 5 0 3 1 8 7 8 11 8 9 14 10 2 4 5 5 6 4 6 9 15 7 12 8 7 20 17 18 11 38 41 43
32 31 28 22 12 15 20 3 6 1 16 8 7 11 19 7 8 4 4 6 7 7 1 3 2 8 13 11 14 6 7 14 17 16 3 12 10 12 12 10 12 20 22 39 43
31 31 28 21 9 11 16 13 13 11 12 19 18 19 17 11 6 7 8 7 4 5 1 4 6 15 9 11 10 12 11 12 8 6 4 8 8 8 7 8 18 20 26 25 42
30 30 28 20 6 10 13 13 11 11 4 12 5 8 10 10 6 8 16 3 5 4 5 6 12 8 9 13 12 8 6 5 6 4 6 2 9 8 15 20 23 30 28 31 23
29 30 28 21 4 6 6 11 9 12 4 6 2 5 8 4 5 7 15 2 2 3 5 5 6 5 10 7 2 5 5 5 8 7 7 4 6 8 11 11 15 34 34 37 35
26 29 27 22 13 5 11 9 5 5 3 3 3 5 3 7 3 6 12 6 6 6 2 8 7 13 12 6 7 7 5 5 3 3 4 8 4 6 11 12 20 16 29 33 42
25 28 29 19 13 8 14 7 3 4 1 2 4 2 2 6 7 6 9 11 3 2 2 6 5 4 3 6 4 5 5 7 6 4 4 8 4 4 5 6 9 11 19 32 39
26 26 27 15 9 9 9 3 4 4 7 6 2 4 3 4 3 6 5 3 3 2 5 7 1 5 15 9 10 12 8 6 5 5 6 6 3 5 7 6 4 6 8 18 23
27 26 19 3 8 8 10 4 5 4 4 2 6 7 1 2 3 3 2 4 5 3 3 3 7 8 8 3 4 7 4 4 5 3 7 6 2 5 7 7 5 16 12 14 15
28 25 11 0 8 10 7 4 4 3 3 5 8 5 6 9 5 7 5 5 5 3 5 3 4 6 7 8 2 9 6 4 2 2 3 3 6 4 3 5 12 17 26 19 18
28 23 4 4 6 5 5 3 4 4 2 5 5 4 6 7 8 6 4 3 4 4 4 2 3 3 6 8 3 6 5 5 4 3 4 5 5 4 8 7 8 11 17 19 14
22 12 1 4 1 2 2 5 5 7 3 3 0 3 4 1 3 6 4 5 3 2 9 2 3 6 5 3 7 8 6 3 2 4 4 3 6 7 2 5 5 8 18 14 13
12 4 5 3 2 1 1 4 16 12 3 2 1 2 4 5 4 3 3 2 9 2 4 4 5 2 7 9 3 6 3 4 3 8 4 3 6 7 6 1 2 4 13 10 11
19 9 1 13 1 3 8 6 5 10 7 3 2 3 2 4 4 5 6 13 16 3 4 1 2 4 9 7 5 1 6 4 3 2 5 2 6 3 3 6 10 11 14 11 8
7 4 7 2 7 3 6 5 8 13 6 12 5 3 4 5 1 4 5 4 13 8 12 5 2 5 5 7 4 8 17 19 9 1 5 5 5 6 8 8 10 19 11 9 8
3 4 5 4 6 7 3 3 5 7 2 5 6 4 4 3 6 6 6 7 8 7 6 4 3 3 5 7 7 12 17 7 3 4 3 6 5 5 5 5 8 9 10 7 11
4 4 7 11 10 7 4 3 4 7 4 14 1 5 6 5 1 3 3 2 6 6 2 2 3 2 5 8 12 15 4 2 2 2 5 4 5 1 5 8 9 9 12 13 14
5 7 4 6 5 3 2 6 13 10 12 2 3 4 6 4 3 5 5 12 10 5 4 1 1 1 5 8 9 6 2 3 3 2 4 2 6 5 5 4 6 12 13 14 11
Wind_Direction
344 342 339 337 334 331 329 323 316 310 303 301 299 299 295 292 288 285 274 277 279 264 273 294 296 270 193 247 245 255 95 260 213 166 227 276 303 297 254 199 178 182 165 171 167
349 346 343 340 337 336 334 330 325 321 314 304 296 296 296 297 297 283 295 271 253 251 277 296 294 208 202 232 234 154 135 243 210 217 235 252 267 283 341 157 74 136 162 156 168
349 346 344 339 336 336 335 332 328 324 318 310 304 297 292 303 313 315 354 310 222 242 267 277 256 244 240 265 257 214 225 270 283 247 243 257 273 278 329 193 184 148 151 161 174
349 347 344 340 337 336 335 332 327 322 316 310 308 299 290 294 275 95 355 11 73 255 256 244 228 226 244 264 286 268 273 267 278 302 289 229 255 309 308 293 196 176 170 166 178
353 346 343 340 338 336 335 331 327 321 311 307 304 291 286 269 261 253 11 313 272 270 263 204 242 267 245 267 313 291 287 313 322 321 320 324 311 299 298 298 196 177 172 175 178
356 350 344 343 340 340 338 333 329 320 309 304 291 274 265 259 199 158 94 330 265 255 242 218 236 298 287 287 313 298 320 324 319 310 310 326 294 335 288 287 192 177 178 180 183
357 353 350 346 343 342 342 338 329 320 318 292 271 265 256 262 89 213 284 329 345 291 242 244 258 294 316 327 332 337 355 321 293 289 297 304 301 287 289 291 215 184 183 183 186
358 355 352 348 344 347 349 336 344 353 352 324 290 288 255 9 319 238 284 249 304 312 226 283 273 283 277 306 340 352 12 329 290 297 279 187 276 283 315 314 177 177 180 184 192
358 356 354 350 347 357 350 339 4 10 13 61 6 300 275 64 243 323 249 268 260 269 260 277 271 274 302 42 355 351 251 255 302 300 285 150 258 278 326 336 225 183 185 188 196
356 355 354 354 353 4 360 6 337 351 341 293 262 314 260 346 324 294 255 245 253 274 250 246 258 342 5 79 247 244 236 273 278 290 306 313 275 286 313 325 313 205 191 194 196
354 353 354 357 11 12 21 55 7 349 319 257 256 281 281 331 296 275 202 222 235 268 234 300 78 252 244 207 232 236 257 265 279 281 10 301 292 294 295 305 293 296 197 203 201
352 351 352 357 20 25 40 54 21 334 301 290 276 261 268 284 287 264 209 189 175 228 66 354 261 254 254 249 231 246 253 267 276 263 6 322 307 309 306 287 300 288 289 215 209
350 349 349 359 29 38 57 30 0 335 309 298 228 247 250 232 252 308 208 211 188 219 227 187 246 286 253 265 252 246 220 235 239 305 322 11 324 317 305 316 320 349 337 323 259
348 346 347 355 349 12 10 358 354 334 47 283 208 273 211 206 286 230 221 210 338 271 288 233 267 321 331 309 299 315 263 308 331 12 301 77 283 307 343 347 28 6 20 11 12
348 343 342 337 327 324 332 339 353 329 56 182 208 194 198 192 282 217 200 209 206 239 74 255 324 319 313 307 336 259 347 332 275 297 34 311 46 320 27 345 351 356 3 30 39
345 343 335 332 328 318 334 338 343 44 334 219 154 220 41 241 253 180 192 225 275 302 261 239 325 55 298 323 352 292 18 21 31 78 18 272 129 333 355 282 326 2 22 35 45
340 339 332 328 339 341 330 1 40 93 330 348 16 5 273 284 292 184 201 166 186 90 309 337 294 332 23 359 349 12 32 340 350 0 245 289 39 217 234 275 304 340 37 49 51
338 337 332 344 22 18 7 54 69 277 348 350 341 332 300 264 282 25 360 312 52 110 78 77 334 13 359 33 262 281 133 170 289 243 281 307 207 239 208 204 358 28 49 27 37
338 342 348 358 41 20 11 62 202 330 1 4 345 7 345 355 13 29 349 14 34 37 115 56 288 326 23 338 46 322 360 216 156 356 30 276 304 332 267 145 17 10 20 20 360
339 340 25 45 52 6 64 245 276 337 62 36 48 50 6 328 20 358 14 356 89 45 77 351 326 319 323 358 16 118 262 3 2 346 311 301 288 248 313 352 359 360 354 16 14
339 331 171 345 232 275 134 245 289 285 100 78 204 305 280 276 4 340 348 360 55 20 93 121 104 290 21 1 307 327 344 7 126 152 204 280 276 225 264 37 341 342 357 8 1
341 338 178 215 311 43 217 226 312 279 26 355 242 276 343 341 335 5 321 231 337 215 165 209 148 235 249 284 222 178 330 88 118 292 235 194 269 43 28 51 233 329 6 13 27
333 301 173 255 233 327 310 309 314 7 316 92 347 77 108 352 3 342 338 315 348 111 150 223 348 354 346 350 344 43 326 280 187 116 228 189 270 55 30 352 332 351 12 4 22
330 347 330 92 71 40 1 324 336 330 335 9 304 341 355 341 229 270 311 357 47 71 47 65 96 149 197 222 228 305 313 310 297 187 292 230 280 316 355 336 336 0 356 354 344
298 272 7 312 335 336 341 274 318 328 311 343 322 335 309 323 2 12 355 340 344 55 37 93 205 253 256 266 285 290 289 324 51 262 155 263 258 291 323 332 351 5 360 332 325
292 348 333 301 316 1 13 307 331 314 271 294 103 349 33 97 134 310 20 343 257 323 98 17 246 284 276 289 286 291 351 56 329 326 269 287 276 293 323 359 339 341 342 343 343
239 267 308 294 336 34 274 338 317 330 320 122 131 111 3 192 353 293 305 291 248 229 277 217 216 87 266 275 295 293 241 303 203 209 225 254 250 299 282 314 332 340 337 331 354
Height
1531 1528 1525 1522 1520 1518 1515 1512 1510 1508 1506 1504 1502 1501 1499 1498 1497 1496 1493 1496 1496 1496 1497 1498 1499 1501 1502 1502 1501 1503 1512 1516 1511 1507 1493 1471 1468 1464 1471 1473 1468 1468 1466 1473 1479
1530 1526 1523 1520 1517 1515 1512 1509 1507 1505 1503 1501 1499 1498 1496 1495 1494 1491 1491 1490 1492 1493 1494 1495 1497 1500 1501 1499 1499 1500 1513 1502 1492 1490 1487 1478 1474 1466 1469 1469 1471 1469 1470 1477 1480
1529 1525 1521 1518 1515 1512 1509 1507 1504 1502 1499 1498 1497 1496 1494 1493 1492 1487 1487 1486 1488 1491 1492 1493 1494 1499 1499 1497 1494 1495 1501 1487 1483 1483 1481 1477 1475 1468 1464 1470 1464 1465 1471 1473 1479
1527 1523 1519 1516 1513 1510 1507 1504 1501 1498 1496 1495 1494 1493 1492 1493 1495 1486 1487 1487 1487 1489 1490 1491 1493 1497 1496 1495 1489 1495 1487 1485 1480 1477 1476 1476 1468 1462 1459 1457 1457 1460 1462 1466 1472
1525 1522 1518 1514 1511 1507 1504 1501 1498 1496 1494 1492 1492 1491 1491 1491 1486 1486 1487 1487 1487 1488 1489 1491 1493 1494 1494 1490 1489 1488 1484 1480 1475 1472 1469 1466 1464 1463 1457 1451 1457 1459 1461 1462 1467
1524 1521 1516 1512 1509 1505 1502 1498 1495 1493 1491 1490 1489 1490 1490 1491 1484 1485 1486 1487 1487 1487 1488 1490 1490 1492 1491 1489 1489 1485 1481 1477 1471 1468 1467 1469 1463 1464 1451 1450 1455 1455 1455 1459 1460
1523 1519 1515 1510 1506 1502 1499 1496 1493 1490 1488 1488 1488 1488 1488 1485 1484 1484 1485 1486 1486 1485 1486 1488 1489 1492 1490 1488 1485 1482 1484 1476 1468 1467 1467 1467 1462 1458 1447 1441 1447 1449 1452 1457 1462
1522 1518 1513 1509 1504 1500 1497 1494 1491 1489 1487 1487 1487 1487 1484 1483 1482 1483 1483 1484 1485 1485 1485 1487 1488 1489 1488 1487 1485 1486 1486 1496 1466 1464 1461 1467 1477 1449 1444 1435 1439 1444 1450 1455 1458
1522 1517 1512 1507 1503 1499 1496 1492 1491 1489 1488 1488 1489 1487 1482 1482 1482 1482 1482 1482 1483 1484 1485 1486 1487 1486 1486 1490 1501 1495 1506 1495 1479 1459 1458 1460 1468 1447 1442 1440 1442 1443 1446 1448 1452
1521 1516 1511 1507 1502 1499 1495 1491 1491 1490 1490 1489 1489 1490 1482 1482 1481 1481 1481 1481 1482 1483 1483 1483 1484 1487 1491 1499 1520 1502 1500 1491 1485 1461 1458 1459 1457 1446 1441 1439 1437 1438 1441 1442 1446
1521 1516 1511 1507 1503 1500 1495 1492 1494 1492 1489 1487 1486 1485 1481 1481 1481 1480 1480 1480 1480 1481 1484 1482 1491 1499 1486 1485 1481 1486 1491 1491 1474 1462 1463 1461 1458 1444 1437 1437 1435 1433 1439 1439 1439
1520 1515 1511 1507 1504 1501 1499 1498 1502 1502 1491 1482 1480 1481 1478 1479 1479 1477 1479 1480 1480 1485 1481 1488 1496 1476 1473 1474 1480 1481 1487 1485 1470 1457 1457 1460 1458 1444 1436 1435 1434 1433 1430 1430 1433
1520 1515 1510 1507 1505 1503 1501 1502 1502 1501 1496 1478 1477 1477 1478 1479 1477 1475 1477 1476 1478 1483 1483 1494 1480 1469 1472 1472 1476 1476 1481 1476 1473 1460 1456 1457 1464 1452 1437 1432 1430 1432 1430 1425 1421
1520 1515 1511 1507 1507 1503 1502 1500 1499 1499 1506 1486 1477 1476 1477 1477 1475 1473 1474 1476 1475 1478 1476 1480 1468 1468 1468 1469 1465 1476 1458 1459 1464 1473 1489 1460 1492 1461 1453 1448 1445 1444 1434 1426 1422
1520 1515 1511 1506 1505 1503 1502 1498 1496 1497 1518 1479 1476 1474 1475 1477 1474 1472 1472 1472 1475 1475 1477 1483 1474 1471 1472 1470 1463 1471 1456 1461 1461 1473 1479 1471 1486 1480 1466 1464 1459 1453 1448 1439 1428
1520 1515 1509 1506 1503 1502 1499 1496 1496 1507 1509 1480 1473 1474 1475 1473 1471 1470 1471 1471 1471 1471 1471 1473 1469 1472 1471 1464 1463 1458 1462 1466 1470 1484 1507 1481 1484 1494 1483 1474 1461 1458 1452 1439 1433
1518 1514 1507 1505 1503 1500 1498 1496 1509 1515 1480 1486 1480 1476 1475 1473 1469 1469 1470 1474 1482 1491 1493 1478 1476 1472 1469 1472 1461 1464 1478 1506 1511 1511 1511 1476 1485 1488 1472 1463 1461 1458 1454 1445 1439
1516 1511 1506 1504 1503 1500 1497 1498 1514 1492 1490 1481 1480 1476 1479 1472 1469 1468 1470 1478 1473 1478 1495 1499 1501 1478 1472 1478 1482 1479 1481 1510 1516 1519 1498 1475 1482 1477 1462 1460 1460 1453 1452 1448 1443
1514 1508 1504 1504 1502 1500 1499 1516 1508 1494 1487 1488 1483 1486 1486 1477 1475 1474 1475 1480 1479 1476 1494 1501 1495 1474 1473 1473 1475 1481 1492 1477 1493 1492 1501 1490 1473 1461 1456 1460 1455 1450 1448 1450 1444
1513 1507 1504 1504 1503 1502 1505 1513 1499 1489 1487 1487 1499 1493 1500 1493 1490 1486 1483 1480 1482 1479 1477 1487 1503 1482 1475 1473 1473 1481 1475 1493 1501 1511 1512 1497 1483 1483 1462 1458 1457 1450 1448 1451 1447
1514 1509 1505 1505 1504 1504 1515 1509 1496 1489 1486 1489 1493 1495 1493 1493 1491 1492 1489 1482 1478 1479 1478 1484 1496 1495 1483 1488 1491 1485 1491 1487 1494 1503 1512 1516 1496 1461 1459 1462 1461 1451 1449 1449 1441
1514 1514 1506 1506 1507 1506 1509 1500 1494 1488 1485 1485 1486 1488 1492 1490 1491 1490 1489 1482 1479 1476 1482 1480 1495 1506 1495 1479 1479 1480 1482 1493 1511 1507 1501 1503 1493 1462 1461 1460 1456 1451 1448 1448 1446
1515 1510 1504 1504 1513 1512 1504 1499 1495 1493 1488 1486 1488 1488 1488 1492 1498 1488 1484 1477 1477 1476 1482 1482 1500 1516 1507 1493 1480 1482 1479 1480 1489 1497 1497 1505 1492 1463 1464 1460 1453 1447 1440 1440 1445
1519 1517 1505 1505 1507 1508 1510 1504 1500 1493 1489 1489 1488 1485 1487 1490 1488 1492 1487 1480 1479 1480 1482 1481 1499 1506 1521 1507 1495 1494 1480 1472 1478 1498 1486 1489 1480 1466 1466 1461 1453 1447 1445 1440 1441
1521 1517 1515 1516 1509 1508 1508 1505 1502 1499 1491 1490 1490 1488 1490 1495 1496 1497 1492 1487 1481 1481 1482 1486 1500 1493 1493 1490 1486 1484 1479 1474 1479 1480 1486 1478 1474 1466 1464 1459 1452 1448 1447 1445 1444
1522 1520 1516 1514 1510 1508 1506 1505 1503 1497 1497 1491 1492 1491 1492 1497 1497 1499 1495 1494 1492 1482 1485 1485 1496 1491 1494 1483 1481 1481 1476 1473 1472 1473 1473 1472 1471 1462 1462 1460 1454 1448 1446 1445 1442
1520 1519 1518 1512 1510 1512 1510 1509 1505 1499 1492 1488 1488 1489 1492 1491 1490 1490 1489 1488 1486 1486 1486 1488 1492 1497 1499 1485 1484 1490 1479 1474 1474 1474 1474 1476 1467 1459 1457 1458 1456 1449 1448 1445 1439